Wind_Speed
22 22 21 21 20 20 19 19 19 19 20 20 21 22 23 23 23 23 23 23 23 23 23 24 24 25 25 25 25 26 26 27 27 27 28 28 29 29 30 30 30 31 31 31 32 32 31 31 31 30 28 26 25 25 24 24 24 25 25 25 25 26 27 28 28 29 29 29 29
22 22 21 21 21 20 20 19 19 19 19 20 20 21 22 23 23 24 24 24 23 24 24 25 25 26 26 26 26 26 27 28 28 29 29 29 29 30 30 31 31 31 31 32 33 33 33 33 33 31 28 26 26 26 26 25 24 24 25 25 24 25 25 25 26 27 28 29 28
22 22 22 22 21 21 21 21 20 20 20 20 20 20 21 22 23 24 24 23 23 24 25 26 26 27 27 27 27 27 27 28 28 29 29 30 30 30 31 31 32 32 32 33 33 34 34 34 34 31 29 27 27 27 26 25 24 24 24 24 24 25 25 24 25 26 26 26 27
23 23 23 23 22 22 21 21 21 21 20 20 20 20 21 22 23 23 23 23 24 24 26 26 27 27 28 28 28 28 27 27 28 29 29 30 30 30 31 31 32 32 33 33 34 34 35 35 33 31 29 29 28 27 25 24 25 25 25 25 26 26 25 25 24 24 24 25 26
23 23 23 23 22 22 21 21 21 21 21 21 21 22 22 23 23 23 24 24 24 25 26 26 27 27 28 28 28 28 28 28 28 28 29 29 30 30 31 31 32 33 33 33 34 34 35 34 32 30 29 29 27 25 25 26 26 27 28 28 27 27 25 25 25 26 26 26 26
23 23 22 22 22 21 21 21 20 21 21 21 22 23 23 24 24 24 24 24 25 25 26 26 26 27 27 28 28 28 28 28 28 28 29 29 30 30 31 31 32 32 33 33 34 34 34 33 31 29 28 27 26 25 26 27 28 29 29 29 27 26 26 26 27 27 27 27 27
22 22 22 22 22 21 21 21 20 21 21 22 23 24 24 24 24 25 25 25 25 26 26 26 26 26 27 27 27 27 28 28 28 28 28 29 29 30 31 31 31 32 32 33 33 33 33 32 30 28 26 25 25 26 27 28 29 30 30 29 28 27 27 27 28 27 27 28 28
21 21 21 21 22 21 21 21 21 22 23 24 24 25 24 24 25 25 25 25 25 25 25 25 25 26 26 26 26 26 27 27 27 28 28 28 29 29 30 30 30 30 31 31 32 32 32 31 28 26 25 25 25 26 28 29 30 30 30 29 28 28 28 28 28 28 28 29 29
21 21 21 21 22 22 22 21 22 23 24 25 25 25 25 25 25 25 25 25 25 25 25 25 25 26 26 26 26 26 26 26 27 27 28 28 28 29 29 29 29 29 30 30 30 31 30 29 26 25 25 26 26 27 29 30 30 30 29 29 28 28 29 29 29 29 29 29 29
21 21 21 22 22 23 23 22 22 23 25 26 26 26 26 25 26 26 25 25 26 26 26 25 26 27 27 26 26 26 26 26 27 27 27 28 28 28 28 28 28 29 29 29 29 29 28 27 25 26 27 27 28 29 29 29 29 29 29 27 27 28 29 29 29 29 29 28 27
21 21 22 22 23 24 24 24 24 24 26 27 27 27 27 26 26 26 26 27 27 27 26 26 27 27 27 26 26 26 26 27 27 27 27 27 27 27 27 27 28 28 28 28 28 27 26 26 26 28 29 29 29 29 28 28 28 29 28 28 28 28 28 28 28 28 27 26 26
20 21 21 22 23 24 25 25 24 25 26 28 28 28 27 27 27 27 27 28 28 27 27 27 27 27 27 26 26 27 27 27 27 27 27 27 27 27 27 27 27 28 28 27 27 26 25 26 27 28 29 30 28 27 27 28 28 28 28 28 28 28 28 28 28 27 27 27 27
20 21 22 23 24 25 26 26 25 25 26 28 28 28 27 27 27 27 27 28 28 27 27 27 28 27 27 27 27 27 27 28 28 27 27 27 27 27 27 27 27 27 27 26 26 25 25 26 27 28 29 29 28 27 27 28 28 28 28 28 28 28 28 28 28 28 28 28 28
21 21 22 23 25 26 27 27 25 25 26 27 27 27 27 26 26 27 27 27 27 27 27 28 28 27 27 27 28 28 28 28 28 28 27 27 27 27 27 27 27 27 27 26 26 26 26 26 27 27 27 28 27 27 27 27 27 28 28 28 28 28 28 28 28 28 29 29 29
22 22 23 24 26 27 27 27 25 24 25 26 26 27 26 26 26 26 27 27 27 27 27 28 28 28 27 27 28 29 29 28 28 28 28 27 27 27 27 27 28 28 27 27 27 27 26 26 26 26 26 27 27 27 27 28 28 28 28 28 28 28 28 28 28 28 28 28 29
22 23 24 26 27 28 27 26 24 24 25 26 26 26 26 26 26 27 27 28 27 27 28 29 29 28 28 28 29 29 29 28 28 28 28 28 28 28 28 28 28 28 28 28 28 27 27 26 26 26 26 26 27 27 28 28 28 28 28 28 28 28 27 28 27 27 28 28 28
23 24 25 26 27 27 27 26 25 24 25 26 26 26 26 27 27 27 28 28 28 28 29 30 29 29 29 29 30 30 29 28 28 27 27 28 29 29 30 29 29 29 29 29 29 28 28 27 26 26 26 26 27 27 28 29 28 28 28 28 28 28 27 27 27 27 27 27 27
22 23 24 25 26 26 26 26 26 26 26 26 26 26 27 28 28 28 28 29 29 30 31 31 30 29 30 31 31 30 29 28 28 28 28 29 30 30 31 31 31 30 30 30 29 28 28 28 27 27 27 27 28 28 28 29 29 29 29 28 28 28 28 28 28 27 27 27 27
22 23 24 25 25 26 26 26 26 26 26 26 26 27 28 28 29 29 29 30 30 30 31 31 31 30 31 32 33 32 30 28 28 29 30 30 30 31 31 32 32 32 31 31 30 29 28 28 29 29 29 29 30 30 30 30 30 30 29 29 29 28 28 28 28 28 28 27 27
22 22 23 24 25 26 26 25 25 25 26 26 27 27 28 28 29 29 29 30 30 31 31 31 31 31 32 33 33 32 31 29 29 29 30 30 31 31 32 32 32 32 32 31 30 30 30 30 30 31 31 32 32 32 32 31 31 31 30 29 29 28 28 29 29 28 28 27 26
21 22 23 24 25 25 25 25 25 25 26 26 27 27 28 29 29 29 29 30 30 31 31 31 31 32 32 33 33 32 31 29 29 30 30 30 31 31 31 32 32 32 32 31 30 30 31 31 32 32 33 33 33 33 33 32 32 32 31 30 29 29 30 29 29 28 27 26 25
21 23 23 24 25 25 25 25 25 26 26 27 27 28 28 29 29 29 29 30 30 30 30 30 30 31 32 32 32 31 31 30 30 30 30 30 31 31 31 31 32 32 31 31 30 30 31 32 33 34 34 34 34 34 33 33 33 32 32 32 31 31 31 30 29 27 26 25 24
22 23 24 24 25 25 26 26 26 26 27 27 28 28 28 29 29 29 29 30 29 30 30 29 29 30 31 30 30 30 31 31 31 31 31 31 31 32 32 32 31 31 30 29 29 30 32 33 34 35 35 34 34 34 34 34 34 33 33 33 33 32 32 31 29 27 26 25 24
23 24 24 25 26 26 26 26 26 27 27 27 28 28 29 29 29 29 29 30 30 30 30 29 29 29 30 29 29 29 30 31 31 32 32 32 31 32 32 32 31 30 29 29 30 31 32 33 34 34 34 34 34 34 35 35 34 34 34 34 34 33 32 31 29 27 26 25 24
24 25 25 26 26 26 26 26 27 27 27 28 28 28 29 29 29 29 29 29 30 30 30 30 29 29 28 28 28 28 29 30 30 31 31 31 31 32 32 31 31 30 29 29 31 33 34 35 34 34 34 34 34 35 35 35 35 35 34 34 34 33 32 31 30 28 27 26 25
24 25 25 26 26 26 26 26 27 27 28 28 28 28 29 29 28 28 29 29 30 30 30 29 29 28 27 27 28 29 29 29 29 30 31 31 32 32 32 31 30 30 30 31 33 35 36 36 36 36 35 35 35 35 35 35 35 35 35 34 33 32 31 30 30 29 27 26 26
25 25 25 26 26 26 26 27 27 27 28 28 28 28 29 29 28 28 29 29 29 29 29 28 27 27 26 27 28 29 29 29 30 30 31 31 32 33 33 31 31 30 31 33 35 36 36 37 37 37 37 36 36 36 35 35 35 35 34 33 32 31 30 30 29 28 28 27 27
25 25 26 26 26 26 27 27 27 28 28 28 28 28 29 29 29 29 29 29 29 29 28 28 27 26 26 27 28 29 30 30 30 30 31 31 32 32 32 32 32 32 33 34 35 36 36 36 37 37 38 38 37 36 36 35 34 34 33 32 31 30 30 29 28 28 28 28 28
25 26 26 26 26 26 27 27 27 28 28 28 28 28 29 29 29 29 29 29 29 29 28 28 28 27 27 28 28 29 30 30 30 31 31 32 32 32 32 33 33 34 35 35 35 35 36 36 37 38 39 39 38 36 35 34 33 32 31 31 30 29 29 28 28 28 28 28 28
25 26 26 26 26 26 27 27 27 28 28 27 28 29 29 28 28 29 29 29 29 28 28 28 28 28 29 29 30 30 30 31 31 31 32 32 32 32 32 33 34 35 35 35 34 35 36 37 38 39 39 40 39 37 34 33 32 31 30 29 28 28 28 28 28 28 28 28 27
25 26 26 26 26 26 26 27 27 28 28 27 28 28 28 28 28 29 29 30 29 29 29 29 29 29 30 30 30 30 31 31 32 31 31 31 32 33 34 35 35 35 34 34 34 35 36 37 38 39 39 40 39 36 34 33 31 30 29 28 27 28 28 28 29 29 29 28 27
25 25 25 26 26 26 26 27 27 27 28 28 27 27 27 28 28 29 29 29 29 29 29 29 29 30 30 30 31 31 31 31 31 31 31 32 32 34 34 35 34 33 33 33 34 35 36 37 38 38 38 39 37 34 32 31 29 28 27 27 27 27 28 28 28 29 29 28 27
25 25 25 25 26 26 26 27 27 27 27 27 27 27 27 28 29 30 29 29 28 28 28 28 29 29 29 30 31 31 31 31 31 31 32 33 33 34 34 34 32 32 33 33 34 35 36 37 37 37 37 37 35 32 30 29 27 26 26 26 26 26 27 27 27 28 28 27 27
25 25 25 25 25 26 26 26 27 27 27 27 26 27 27 28 29 29 29 29 28 27 27 28 28 29 29 29 30 31 31 31 31 31 32 33 34 34 33 33 32 32 34 35 35 35 36 36 36 36 36 35 32 30 28 28 27 26 26 26 26 26 26 26 26 26 26 27 27
25 25 25 25 25 26 26 26 26 26 26 26 27 27 28 28 28 29 29 29 28 27 28 28 29 29 29 30 30 30 31 31 32 32 32 33 33 33 33 33 33 34 35 35 35 35 35 35 35 35 35 33 31 29 28 27 27 26 26 26 26 26 26 25 25 25 25 26 26
24 24 24 25 25 25 26 26 26 26 26 26 27 28 28 29 28 28 28 28 28 28 28 29 29 30 30 30 30 30 30 31 32 32 32 32 32 33 33 33 34 35 36 35 35 35 35 35 34 34 33 32 30 28 28 27 26 26 26 27 26 26 26 26 25 25 25 25 26
24 24 24 24 25 25 25 26 26 26 26 26 27 27 28 29 28 28 27 27 28 28 29 29 30 30 30 31 31 31 31 31 32 32 32 32 32 32 33 34 34 35 35 36 35 35 34 34 34 33 33 31 30 29 28 27 26 26 26 27 27 27 27 26 26 25 25 26 27
23 23 24 24 24 25 25 25 25 26 26 27 27 27 28 28 28 27 27 26 27 28 29 30 30 30 31 31 31 32 32 32 31 32 32 32 32 32 33 34 34 35 35 36 36 35 34 33 33 33 32 31 30 29 28 27 27 27 27 27 27 28 28 27 27 26 26 27 28
23 23 23 23 24 25 25 25 25 26 26 27 27 28 28 27 27 27 26 26 27 28 29 30 30 30 31 31 31 32 32 32 32 32 32 32 32 32 32 33 34 35 35 36 35 35 34 33 33 33 32 32 31 29 28 28 28 28 28 28 28 28 28 28 27 27 27 28 29
23 23 23 23 24 24 25 25 25 25 26 26 27 27 27 27 27 27 27 27 28 28 29 29 30 30 31 31 31 32 33 33 32 32 32 32 32 32 32 32 33 34 35 35 35 34 33 32 32 32 32 32 31 30 29 28 28 28 28 28 28 28 28 28 28 27 28 29 29
23 23 23 23 23 24 25 25 25 26 26 26 26 27 27 27 27 28 28 29 29 29 29 29 30 31 32 32 31 32 32 33 33 33 32 33 33 32 32 32 33 34 34 34 33 33 32 31 32 32 32 31 31 30 29 28 28 28 28 28 28 28 28 28 28 28 28 28 29
Wind_Direction
32 31 30 29 28 27 27 26 24 21 20 18 17 16 15 13 12 10 10 9 7 4 1 359 357 355 353 350 348 347 346 344 343 342 340 339 338 336 335 335 334 334 334 334 334 334 334 333 332 330 327 324 321 318 315 312 309 306 302 299 295 294 292 291 290 290 290 288 286
31 30 28 27 26 25 24 24 22 20 18 17 15 14 12 11 10 8 7 6 4 1 359 357 355 353 352 349 347 345 344 343 341 340 338 337 336 335 334 334 334 333 333 333 333 333 332 332 331 329 326 323 320 318 315 314 312 309 306 303 300 298 296 293 293 293 292 291 289
30 28 27 26 25 24 24 23 21 19 18 15 13 12 10 9 8 6 4 2 359 358 356 355 353 351 350 348 346 344 342 340 339 338 336 335 334 333 333 333 333 333 333 333 332 332 332 331 330 328 325 322 320 318 315 314 313 310 307 305 304 302 300 298 297 297 296 292 290
27 26 25 24 24 24 23 22 20 18 15 13 11 10 9 8 6 4 1 358 357 355 354 353 351 349 348 346 344 342 340 338 337 336 335 334 333 332 332 333 333 333 333 332 332 331 331 330 329 326 323 321 319 317 315 314 313 311 309 307 306 304 302 300 299 298 296 293 291
24 23 22 21 20 20 19 18 16 15 12 11 10 9 8 6 4 2 360 358 356 354 352 351 349 348 346 344 343 341 340 338 337 337 335 334 333 333 333 333 333 333 332 332 331 330 330 329 327 324 322 320 318 316 315 315 314 312 310 309 307 305 303 301 299 298 297 295 294
22 20 18 17 16 15 14 14 13 11 10 9 9 9 7 5 4 2 360 357 354 352 351 350 348 347 345 344 342 341 341 340 339 338 337 335 335 334 334 333 333 332 332 331 330 329 329 328 325 323 321 319 317 315 315 316 315 313 312 310 308 306 304 301 300 300 299 297 295
19 17 15 14 13 12 12 11 10 9 8 8 8 8 6 4 2 0 358 355 353 351 350 349 348 347 345 344 343 342 341 340 339 338 337 335 334 334 333 332 332 331 331 330 329 328 327 326 324 321 320 318 317 316 316 317 316 314 312 310 309 307 305 303 302 301 300 297 296
17 16 14 13 11 11 11 11 10 9 8 8 8 7 5 3 1 359 356 354 352 350 349 348 347 346 344 343 342 341 340 338 337 336 335 334 333 332 332 331 330 330 329 329 328 327 327 326 323 321 319 319 318 317 317 317 316 314 312 310 309 308 306 304 303 302 301 298 297
16 14 12 11 10 10 10 11 10 9 8 7 6 5 3 1 359 357 355 352 350 349 348 347 346 345 344 343 341 340 339 337 336 334 333 333 332 331 331 330 329 329 329 329 328 327 326 325 323 321 320 320 319 318 317 317 316 315 313 312 311 310 309 308 306 305 303 301 299
15 13 11 9 8 8 8 9 8 7 6 5 3 2 1 359 358 356 353 351 349 349 348 347 345 344 343 342 341 340 338 337 335 334 333 332 332 331 331 330 330 329 329 329 329 328 327 325 324 322 322 321 320 318 318 318 318 317 316 315 314 313 312 312 311 310 308 305 303
14 12 10 8 7 5 6 7 6 5 3 2 1 360 358 357 356 354 352 350 349 348 347 347 346 345 343 342 341 339 338 337 335 334 333 332 332 331 331 331 330 330 330 330 330 329 328 326 325 323 322 322 321 320 320 321 321 321 320 319 319 318 317 317 317 316 314 312 309
12 10 8 6 4 4 5 6 5 3 1 0 359 358 356 355 354 352 351 351 349 348 346 346 345 344 343 341 340 339 338 337 335 334 333 332 332 332 331 331 331 331 330 330 330 329 328 326 325 323 322 322 322 322 323 324 325 325 324 323 323 322 321 321 321 321 320 318 316
11 8 6 4 3 3 5 5 4 1 359 359 358 356 355 354 353 352 351 350 349 347 346 345 345 344 342 341 340 339 337 336 335 335 333 333 332 332 331 331 331 331 330 330 330 329 327 326 324 323 322 322 323 324 325 326 327 327 326 325 324 323 322 322 322 321 321 320 319
11 8 6 4 3 4 5 5 3 0 358 358 357 356 355 353 353 352 351 350 349 347 345 345 344 343 342 341 339 338 337 336 335 335 334 333 333 332 332 331 331 331 330 330 329 329 327 325 324 323 323 323 324 325 326 327 327 326 325 323 322 321 320 320 320 320 320 319 319
12 10 7 5 5 5 6 5 2 359 358 357 357 356 355 353 352 352 351 349 348 346 345 344 343 342 341 340 340 339 338 337 336 335 334 334 333 333 332 332 332 331 331 330 329 328 327 326 325 324 324 324 324 325 326 325 324 323 322 321 320 319 319 319 319 319 318 318 317
13 11 9 7 6 6 5 4 2 359 357 357 356 356 354 353 352 351 350 349 348 346 345 344 343 342 341 340 340 339 338 337 337 336 335 334 334 333 333 332 332 331 331 330 329 328 328 327 326 325 325 325 324 324 324 323 322 321 320 318 317 317 316 316 316 316 316 315 314
12 10 8 6 5 4 4 3 1 359 357 356 355 355 354 352 351 350 350 349 347 345 344 344 343 342 340 340 340 340 339 337 337 336 335 334 334 333 333 332 332 331 331 330 329 328 327 327 327 326 325 325 324 323 322 321 320 319 318 317 316 315 315 314 314 313 313 312 311
11 9 7 5 4 3 2 1 359 358 356 355 354 353 352 352 351 349 349 348 347 345 344 343 343 342 341 340 340 340 339 337 336 335 335 334 334 333 333 332 332 331 331 330 328 327 327 327 327 326 326 325 324 323 322 321 319 318 317 316 315 314 314 313 312 311 311 310 309
10 8 6 4 2 1 360 359 357 356 354 353 352 351 351 351 350 348 347 347 346 345 343 342 342 341 340 340 340 339 339 337 336 335 334 334 334 333 333 332 332 331 330 330 328 327 327 327 327 327 326 325 324 323 322 321 320 319 318 316 315 314 313 312 311 310 310 309 308
9 7 4 2 0 359 357 356 355 353 352 351 350 350 349 349 348 347 346 345 345 344 343 342 341 340 340 339 339 339 338 337 335 334 334 334 334 333 333 332 332 331 330 330 329 328 328 328 328 327 326 325 324 323 322 321 320 319 318 316 315 313 312 311 310 310 309 308 308
7 5 2 0 358 356 355 354 353 351 350 350 349 348 348 347 347 346 345 344 343 343 342 341 340 339 339 338 338 337 336 335 334 334 333 333 333 333 333 332 331 330 330 329 329 328 328 328 328 327 326 325 324 323 323 321 320 319 318 316 315 313 312 312 311 310 309 308 308
4 2 360 357 355 354 353 352 351 350 350 349 348 347 347 346 345 344 343 343 342 342 341 340 339 338 337 337 336 335 335 334 333 333 333 332 332 332 332 332 331 330 329 329 328 328 328 328 327 327 326 325 324 323 322 321 320 319 317 316 315 314 313 312 311 310 309 309 309
1 359 357 354 353 352 352 351 351 350 349 348 348 347 346 345 344 343 343 342 341 341 340 338 337 337 336 336 335 334 334 333 332 332 332 332 331 331 331 331 330 329 328 327 327 327 328 327 326 326 325 324 323 322 321 321 319 318 317 316 315 314 313 312 311 310 310 310 311
358 356 354 352 352 352 351 351 350 350 349 348 347 346 345 344 343 343 342 341 341 340 339 337 336 335 335 334 334 334 333 332 332 331 331 331 331 331 330 330 329 328 326 326 326 326 326 326 325 324 324 323 322 321 320 319 318 317 316 315 314 313 312 311 310 310 310 311 312
355 353 352 351 351 351 351 351 350 349 348 347 346 345 345 344 343 342 341 340 339 339 338 336 336 335 334 333 333 332 332 331 330 330 330 329 329 329 329 329 328 326 325 324 324 324 324 324 323 323 323 322 321 320 319 318 317 316 315 314 313 312 311 310 309 310 310 312 313
353 352 351 351 351 351 351 350 349 348 347 346 345 345 344 343 342 341 340 339 338 337 337 336 335 335 333 332 331 331 331 330 329 329 328 328 327 328 327 327 326 325 324 323 323 323 323 323 323 322 322 321 320 319 318 317 316 315 314 312 311 310 309 308 308 309 310 312 314
352 351 351 351 351 351 350 349 348 347 346 346 344 343 342 342 341 340 339 338 337 336 336 335 335 334 332 331 330 329 329 329 328 327 327 326 326 326 325 325 324 323 322 322 322 322 322 322 322 322 322 321 320 319 317 316 315 314 313 311 310 308 307 306 306 308 310 312 314
352 351 350 350 350 350 349 348 348 346 345 344 343 342 341 340 340 339 338 337 336 336 336 335 334 333 331 330 328 327 327 327 327 326 325 324 324 324 323 323 323 322 321 321 321 322 322 322 322 322 321 321 319 318 317 316 314 313 312 311 309 307 305 304 305 306 309 311 313
351 351 350 350 349 348 348 347 346 345 344 342 341 340 340 339 338 338 337 336 336 335 334 333 332 331 330 328 326 326 326 326 325 324 324 323 323 322 322 321 321 321 321 321 321 321 321 321 321 321 321 321 320 318 317 316 314 313 311 310 308 306 305 304 305 306 309 311 313
351 351 350 349 348 347 346 345 344 343 342 341 340 339 338 338 337 336 336 335 334 333 332 331 329 328 327 326 326 325 324 324 324 323 323 322 321 321 320 320 320 320 320 320 320 320 321 321 321 321 321 322 321 319 317 316 315 313 311 310 308 307 306 305 307 308 310 312 314
351 351 349 348 346 345 344 343 342 341 340 339 338 337 337 336 335 335 334 333 332 331 330 330 328 327 326 325 325 324 323 323 322 322 322 321 320 319 319 319 319 319 319 320 320 320 320 320 321 321 322 322 322 320 318 317 316 314 313 312 311 311 311 311 312 312 313 315 317
351 350 348 346 345 343 342 341 341 339 338 337 336 336 335 334 333 333 333 332 331 330 329 329 327 326 325 325 324 323 322 322 321 321 320 320 319 318 318 318 318 318 318 319 319 320 320 320 321 321 322 322 322 321 319 319 318 317 316 316 316 316 317 317 316 316 317 319 320
350 349 347 345 343 341 340 340 339 338 336 335 334 334 333 332 332 332 332 331 330 329 328 326 325 324 323 323 322 321 321 320 320 319 319 319 318 318 318 317 317 317 318 319 319 319 320 320 321 321 322 323 323 323 322 321 321 320 320 320 320 320 320 319 319 319 320 321 322
349 347 345 343 341 339 338 337 337 335 334 333 332 332 331 331 331 331 330 329 328 326 325 324 323 322 321 321 320 319 319 319 318 318 318 318 318 317 317 316 316 317 318 318 319 319 319 320 320 321 323 324 325 325 324 324 323 323 322 322 322 322 321 320 320 320 320 321 320
347 345 343 340 339 337 336 335 335 334 333 331 331 331 331 330 330 329 328 327 326 325 323 323 322 321 320 320 319 319 318 318 317 317 317 317 317 316 316 315 315 316 317 318 319 319 319 320 320 322 324 325 326 326 326 325 324 323 323 323 323 323 322 321 320 320 319 319 318
345 343 340 338 337 336 335 334 333 332 331 330 330 329 329 329 328 328 327 326 325 324 323 322 322 321 320 320 319 318 318 317 317 316 317 317 316 316 315 315 315 316 317 318 319 319 319 320 320 322 324 325 326 326 326 325 324 323 323 323 323 322 322 321 320 319 318 318 317
343 341 338 336 334 334 333 332 331 330 329 329 328 328 327 327 326 326 326 326 325 323 322 322 321 320 319 319 318 317 316 316 316 316 316 316 316 315 314 314 315 316 317 318 319 319 319 319 321 323 325 326 326 326 326 326 324 324 323 323 322 322 322 321 320 319 318 318 318
340 339 337 334 333 332 331 331 330 329 328 327 327 326 326 326 325 325 325 325 324 322 321 321 320 319 318 317 317 316 316 316 315 315 315 315 315 314 314 314 314 315 317 318 319 319 319 320 321 323 325 326 326 327 327 326 324 324 323 323 322 322 321 321 320 319 319 318 319
338 337 336 334 332 331 330 329 328 327 326 325 325 325 325 325 324 324 323 323 322 321 320 319 318 317 317 317 316 316 316 315 315 315 314 314 314 314 313 313 313 314 316 318 319 319 319 320 321 324 325 326 326 326 326 325 324 323 322 322 321 321 320 320 319 319 318 319 319
337 336 334 333 331 330 328 327 326 326 325 325 324 324 324 324 323 322 322 322 321 320 319 318 317 316 316 316 316 315 315 315 315 314 314 313 313 313 313 313 313 314 315 317 319 319 319 320 321 324 325 325 325 325 325 324 322 321 321 320 319 319 318 318 318 318 318 318 318
336 335 333 332 330 329 327 326 325 325 325 325 324 323 323 323 322 322 322 321 320 320 319 317 316 316 315 315 315 314 314 314 314 314 313 313 313 313 313 313 313 313 314 316 318 318 318 319 321 323 324 324 324 323 323 322 320 319 318 317 317 316 316 316 316 316 316 317 317
Height
766 765 764 764 763 762 762 761 760 759 758 757 757 756 755 754 753 752 752 751 750 749 748 747 746 745 744 743 742 740 739 738 737 736 735 734 732 731 730 729 727 726 724 723 722 720 719 718 717 715 714 713 712 710 709 708 707 705 704 703 701 700 699 697 696 694 693 692 691
767 766 765 764 764 763 762 761 760 759 759 758 757 756 755 754 754 753 752 751 750 749 748 747 746 745 744 743 741 740 739 738 737 735 734 733 732 731 729 728 727 725 724 722 721 719 718 717 715 714 713 711 710 709 708 707 706 704 703 701 700 699 698 696 695 694 692 691 689
767 766 766 765 764 763 762 761 761 760 759 758 757 756 755 754 754 753 752 751 750 749 748 747 746 745 744 742 741 740 739 738 737 735 734 733 732 730 729 728 726 725 724 722 720 719 718 716 715 713 712 710 709 707 706 705 704 703 701 700 699 698 696 695 693 692 691 689 688
768 767 766 765 764 764 763 762 761 760 759 758 757 757 756 755 754 753 752 751 750 749 748 747 746 745 744 742 741 740 739 738 737 735 734 733 731 730 729 727 726 724 723 722 720 719 717 716 714 713 711 709 708 706 705 704 703 702 700 699 698 696 695 693 692 691 689 688 686
768 767 766 766 765 764 763 762 761 760 759 758 757 756 756 755 754 753 752 751 750 749 748 747 746 745 744 742 741 740 739 738 736 735 734 733 731 730 728 727 726 724 723 721 720 718 717 715 714 712 710 709 707 706 704 703 702 700 699 697 696 695 693 692 690 689 688 686 684
768 768 767 766 765 764 763 762 761 760 759 759 757 756 755 755 754 753 752 751 750 749 748 747 746 744 743 742 741 739 738 737 736 735 734 732 731 729 728 727 725 724 723 721 719 718 717 715 713 711 709 708 706 705 704 703 701 699 698 696 694 693 692 690 689 687 686 684 683
769 768 767 766 765 764 763 762 761 760 759 758 757 756 756 755 754 753 752 751 750 749 747 746 745 744 743 741 740 739 738 736 735 734 733 732 730 729 728 726 725 724 722 721 719 718 716 715 713 711 709 708 706 704 703 702 700 698 696 695 693 692 690 689 687 686 684 683 681
769 768 767 766 765 764 764 763 761 760 759 758 758 757 756 755 754 753 751 750 749 748 747 746 745 744 742 741 739 738 737 736 734 733 732 731 730 729 727 726 724 723 722 721 719 717 716 714 713 711 709 707 706 704 702 701 699 698 696 694 692 690 689 687 686 684 683 681 679
769 768 767 766 765 764 764 763 761 760 759 758 758 757 756 754 754 752 751 750 749 748 747 745 744 743 741 740 739 738 736 735 734 733 731 730 729 728 726 725 724 722 721 720 719 717 715 714 712 711 709 707 705 704 702 700 699 697 695 693 691 689 688 686 685 683 681 680 678
769 768 767 766 765 764 763 762 761 760 759 758 757 756 755 754 753 752 751 750 748 747 746 744 743 742 741 739 738 737 736 735 734 732 731 729 729 727 726 724 723 722 720 719 718 716 715 713 712 710 709 707 705 703 701 699 698 696 694 693 691 689 687 685 684 682 680 678 677
769 768 767 766 765 764 763 762 761 760 759 758 756 755 754 754 752 751 750 749 748 746 745 744 743 741 740 739 738 736 735 734 733 732 730 729 728 727 725 724 723 721 720 719 717 716 714 713 711 709 708 706 704 702 700 699 697 696 694 692 690 688 686 684 683 682 680 678 676
769 768 767 766 765 764 763 761 760 759 758 757 756 755 754 753 752 751 749 748 747 746 744 743 742 741 739 738 737 736 734 734 732 731 729 728 727 726 724 723 722 721 719 718 717 715 714 712 710 709 707 705 704 702 700 698 697 695 693 691 689 688 686 684 683 681 679 678 676
769 768 767 766 765 764 762 761 760 759 758 757 756 755 754 753 752 750 749 748 746 745 744 743 742 740 739 738 737 735 734 733 731 730 729 728 726 725 724 722 721 720 719 717 716 715 713 712 710 708 706 704 703 701 700 698 696 694 693 690 689 687 685 684 682 680 679 677 675
769 768 767 766 765 764 762 761 760 759 758 757 756 755 754 753 752 750 749 748 747 745 744 742 741 740 739 738 736 735 734 732 730 729 728 726 725 724 723 721 720 719 718 716 715 714 713 711 709 707 706 704 702 700 699 698 696 694 692 690 688 686 685 683 681 680 678 677 675
769 768 767 766 765 764 763 762 761 760 759 758 756 755 754 753 752 750 749 748 747 745 744 742 741 739 739 737 736 734 733 731 730 728 727 725 724 723 722 720 719 718 717 715 714 713 712 710 708 707 705 703 701 700 698 697 695 694 692 690 688 686 684 682 681 679 678 676 674
769 768 767 766 765 764 763 762 761 760 759 758 757 755 754 753 752 750 749 748 746 745 744 742 741 739 738 737 735 734 732 730 729 728 726 724 723 722 720 719 718 717 715 714 713 711 710 709 708 706 704 703 701 699 697 696 694 692 691 689 687 685 683 681 680 678 677 675 673
769 768 767 766 765 764 764 763 762 760 759 758 757 756 754 753 752 750 749 748 746 745 744 742 741 739 737 736 734 733 731 729 728 727 726 724 723 721 720 718 717 716 714 713 712 710 709 708 706 705 704 702 700 698 696 694 693 691 689 688 686 684 682 681 679 677 675 674 672
769 769 768 767 766 765 764 763 762 761 759 758 757 756 754 753 752 750 749 748 746 745 743 741 740 739 737 735 734 733 731 729 728 727 725 724 722 721 719 718 716 715 714 712 711 709 708 706 705 704 702 701 699 697 695 694 692 690 688 686 684 683 681 679 678 676 674 672 670
770 769 768 767 766 765 764 763 762 761 759 758 757 756 754 753 752 750 749 747 746 745 743 741 739 738 737 735 734 732 731 730 728 726 725 724 722 720 719 717 715 714 713 711 710 708 707 705 704 702 701 699 697 696 694 692 690 688 687 685 683 681 680 678 676 675 673 671 669
770 769 768 767 766 765 764 763 762 761 759 758 757 755 754 753 751 750 748 747 746 744 743 741 739 738 736 735 733 732 730 729 728 726 724 723 722 720 718 716 714 713 712 710 709 707 706 704 703 701 699 698 696 694 692 690 688 687 685 683 682 680 678 677 675 673 671 670 668
770 769 769 768 766 765 764 763 762 761 759 758 756 755 754 752 751 749 748 747 745 744 743 741 739 738 736 734 733 731 730 729 728 726 724 723 721 720 718 716 714 713 711 709 708 707 705 704 702 700 698 696 694 693 691 689 687 684 683 681 680 678 677 675 673 672 670 668 667
770 769 769 767 766 765 764 763 762 760 759 758 756 754 753 752 750 749 748 747 745 744 742 741 739 738 736 735 733 732 730 729 728 726 724 723 721 719 718 716 714 712 710 709 707 706 704 703 701 699 697 695 693 691 689 687 685 683 681 679 678 676 674 673 672 670 668 667 665
770 769 768 767 766 765 764 762 761 759 758 757 755 754 753 751 750 749 748 746 745 744 742 741 739 738 736 735 734 732 730 728 727 725 724 723 721 719 717 716 714 712 710 709 707 706 704 702 700 698 696 694 692 690 688 686 684 682 679 677 675 674 672 671 670 668 667 665 663
770 769 768 767 765 764 763 762 760 759 758 756 755 754 753 751 750 749 747 746 745 744 742 741 739 738 736 735 734 732 730 728 726 724 723 722 720 719 717 715 714 712 710 708 707 706 704 702 700 698 695 694 691 689 687 685 683 680 678 676 674 672 670 669 668 666 665 663 662
769 769 767 766 765 764 762 761 760 759 758 756 755 754 753 751 750 749 747 746 745 744 742 741 739 738 736 734 733 732 730 729 727 725 723 721 719 718 717 715 713 711 709 708 706 705 704 702 700 698 695 693 691 688 686 684 681 679 677 675 673 671 668 667 666 664 663 662 660
769 768 767 766 764 763 762 761 759 759 757 756 755 754 752 751 750 749 747 746 744 743 742 740 739 737 736 734 733 731 730 729 727 725 723 721 719 717 716 714 713 711 709 707 705 704 702 700 699 697 695 693 690 688 685 682 680 678 676 673 672 670 668 666 664 663 661 660 658
769 767 766 765 764 763 761 760 759 758 757 756 754 753 752 751 750 749 747 746 744 743 742 740 739 737 736 734 733 731 729 728 726 725 723 721 719 717 715 714 712 710 708 706 704 703 701 699 697 695 694 692 689 687 684 681 679 677 674 672 670 669 667 665 663 662 660 658 657
768 767 766 764 763 762 761 760 759 758 757 755 754 753 752 751 749 748 747 746 744 743 741 740 739 737 736 734 732 731 729 728 726 724 722 720 719 717 715 713 711 709 707 705 704 701 699 698 696 694 692 691 689 686 684 681 678 675 673 671 669 668 666 664 663 661 659 657 655
767 766 765 764 763 762 761 759 759 758 757 755 754 753 752 751 749 748 747 745 744 743 741 740 738 737 736 734 732 730 729 727 725 724 722 719 718 716 714 712 710 708 706 704 703 700 699 697 695 693 691 689 687 685 682 680 677 675 672 670 668 667 665 663 662 660 658 656 654
767 765 764 763 762 761 760 759 759 758 756 755 754 753 752 750 749 748 746 745 744 743 741 740 738 737 735 734 732 730 728 726 725 723 721 719 717 715 713 711 709 707 705 703 702 700 698 696 694 692 690 688 686 684 681 678 676 674 671 669 668 666 664 663 661 659 658 656 654
766 765 764 763 762 761 760 759 758 757 756 755 754 753 751 750 749 748 746 745 744 742 741 739 738 736 735 733 731 730 728 726 724 722 720 719 716 714 712 710 708 706 704 702 701 699 697 695 693 691 689 687 684 682 680 677 675 673 670 668 666 665 663 662 660 659 657 655 653
766 765 764 763 762 761 760 759 758 757 756 755 754 752 751 750 749 748 746 745 743 741 740 739 737 735 734 732 730 729 727 725 723 721 720 718 716 713 711 709 707 705 703 701 700 698 696 694 692 689 688 685 684 681 678 676 674 672 669 667 666 664 663 661 660 658 657 655 653
765 764 764 763 761 760 759 759 758 757 755 754 753 752 751 749 748 747 745 744 743 741 740 738 737 735 734 732 730 728 726 724 723 721 719 717 715 713 710 708 706 704 702 700 699 697 695 693 690 689 686 684 682 680 677 675 673 671 668 667 665 663 662 661 659 658 657 655 653
765 764 763 762 761 760 759 758 757 756 755 754 753 752 750 749 747 746 744 743 742 741 739 738 737 735 733 732 730 728 725 724 722 720 718 716 714 711 709 707 705 703 701 699 698 696 694 692 689 688 685 683 681 679 676 674 672 670 668 666 664 663 661 660 658 657 656 654 653
765 764 763 762 761 760 759 758 757 756 754 753 752 750 749 748 747 745 744 743 741 740 739 737 736 734 733 731 729 727 725 723 721 719 717 715 713 710 708 706 704 702 700 699 697 695 693 690 689 686 684 682 680 678 676 673 671 669 667 665 663 662 660 659 657 656 655 653 652
764 764 763 762 761 760 759 757 756 755 754 753 751 750 748 747 746 745 744 742 740 739 737 736 734 733 731 729 728 726 724 722 720 718 716 714 712 709 707 704 703 701 699 697 695 694 691 689 688 686 684 681 679 677 675 673 671 668 667 665 663 661 659 658 656 655 653 652 651
764 764 762 761 760 759 758 757 756 754 753 752 751 749 748 747 745 744 743 742 740 738 736 735 733 732 730 728 726 725 723 722 719 717 715 713 711 709 706 703 701 699 698 696 694 692 690 689 687 685 683 681 678 676 674 672 670 668 666 664 662 660 659 657 655 653 652 651 649
764 763 762 761 760 759 758 756 755 754 753 751 750 749 748 746 745 743 742 741 739 738 735 734 732 731 729 727 725 724 722 720 719 716 714 712 710 708 705 703 700 698 697 695 693 691 689 687 686 684 682 680 678 675 673 671 669 667 665 663 661 659 658 656 654 652 651 649 648
764 763 762 761 759 758 757 756 755 754 752 750 749 748 747 745 744 743 741 740 739 737 735 733 731 730 728 726 724 722 720 719 717 715 713 711 709 707 705 702 699 697 695 694 692 690 688 686 684 683 681 679 677 675 673 670 668 666 664 662 660 658 656 655 653 651 649 648 646
763 762 761 760 759 758 756 755 754 753 752 750 749 747 746 745 744 742 740 739 738 737 735 733 730 729 727 725 723 721 719 717 715 714 712 710 708 706 704 701 699 696 694 692 691 689 687 685 684 682 680 678 676 674 672 670 668 665 663 662 659 657 655 653 652 650 648 646 645
762 761 760 759 758 757 756 754 753 752 751 750 748 747 745 744 743 741 739 738 737 735 734 732 729 728 726 724 723 720 718 715 714 712 710 709 706 704 703 700 698 695 693 691 689 688 686 684 683 681 679 678 675 673 672 669 667 665 663 661 659 657 654 652 650 648 647 645 643